Time,TemperatureF,DewpointF,PressureIn,WindDirection,WindDirectionDegrees,WindSpeedMPH,WindSpeedGustMPH,Humidity,HourlyPrecipIn,Conditions,Clouds,dailyrainin,SoftwareType,DateUTC
2013-03-30 00:00:00,30.8,24.1,30.26,NW,311,0.0,0.0,76,0.00,,---,0.00,VWS V14.01,2013-03-30 04:00:00,
2013-03-30 00:05:00,30.7,23.7,30.26,NW,311,0.0,0.0,75,0.00,,---,0.00,VWS V14.01,2013-03-30 04:05:00,
2013-03-30 00:10:00,30.6,24.0,30.26,NW,311,0.0,0.0,76,0.00,,---,0.00,VWS V14.01,2013-03-30 04:10:00,
2013-03-30 00:15:00,30.6,24.9,30.26,NW,311,0.0,0.0,79,0.00,,---,0.00,VWS V14.01,2013-03-30 04:15:00,
2013-03-30 00:20:00,30.5,24.2,30.26,NW,311,0.0,0.0,77,0.00,,---,0.00,VWS V14.01,2013-03-30 04:20:00,
2013-03-30 00:25:00,30.4,23.8,30.25,NW,311,0.0,0.0,76,0.00,,---,0.00,VWS V14.01,2013-03-30 04:25:00,
2013-03-30 00:30:00,30.2,23.6,30.25,NW,311,0.0,0.0,76,0.00,,---,0.00,VWS V14.01,2013-03-30 04:30:00,
2013-03-30 00:35:00,30.2,24.2,30.25,NW,311,0.0,0.0,78,0.00,,---,0.00,VWS V14.01,2013-03-30 04:35:00,
2013-03-30 00:40:00,30.2,24.5,30.25,NW,311,0.0,0.0,79,0.00,,---,0.00,VWS V14.01,2013-03-30 04:40:00,
2013-03-30 00:45:00,30.1,24.4,30.25,NW,311,0.0,0.0,79,0.00,,---,0.00,VWS V14.01,2013-03-30 04:45:00,
2013-03-30 00:50:00,30.0,23.7,30.25,NW,311,0.0,0.0,77,0.00,,---,0.00,VWS V14.01,2013-03-30 04:50:00,
2013-03-30 00:55:00,29.9,23.3,30.25,NW,311,0.0,0.0,76,0.00,,---,0.00,VWS V14.01,2013-03-30 04:55:00,
2013-03-30 01:00:00,29.8,23.2,30.25,NW,311,0.0,0.0,76,0.00,,---,0.00,VWS V14.01,2013-03-30 05:00:00,
2013-03-30 01:05:00,29.8,23.5,30.25,NW,311,0.0,0.0,77,0.00,,---,0.00,VWS V14.01,2013-03-30 05:05:00,
2013-03-30 01:11:00,29.8,23.5,30.25,NW,311,0.0,0.0,77,0.00,,---,0.00,VWS V14.01,2013-03-30 05:11:00,
2013-03-30 01:16:00,29.7,23.4,30.25,NW,311,0.0,0.0,77,0.00,,---,0.00,VWS V14.01,2013-03-30 05:16:00,
2013-03-30 01:21:00,29.6,23.3,30.25,NW,311,0.0,0.0,77,0.00,,---,0.00,VWS V14.01,2013-03-30 05:21:00,
2013-03-30 01:26:00,29.5,23.2,30.25,NW,311,0.0,0.0,77,0.00,,---,0.00,VWS V14.01,2013-03-30 05:26:00,
2013-03-30 01:30:00,29.5,22.9,30.25,NW,311,0.0,0.0,76,0.00,,---,0.00,VWS V14.01,2013-03-30 05:30:00,
2013-03-30 01:31:00,29.4,23.1,30.25,NW,311,0.0,0.0,77,0.00,,---,0.00,VWS V14.01,2013-03-30 05:31:00,
2013-03-30 01:36:00,29.4,23.1,30.25,NW,311,0.0,0.0,77,0.00,,---,0.00,VWS V14.01,2013-03-30 05:36:00,
2013-03-30 01:41:00,29.3,23.0,30.25,NW,311,0.0,0.0,77,0.00,,---,0.00,VWS V14.01,2013-03-30 05:41:00,
2013-03-30 01:46:00,29.3,23.0,30.25,NW,311,0.0,0.0,77,0.00,,---,0.00,VWS V14.01,2013-03-30 05:46:00,
2013-03-30 01:51:00,29.2,22.9,30.25,NW,311,0.0,0.0,77,0.00,,---,0.00,VWS V14.01,2013-03-30 05:51:00,
2013-03-30 01:56:00,29.1,23.1,30.25,NW,311,0.0,0.0,78,0.00,,---,0.00,VWS V14.01,2013-03-30 05:56:00,
2013-03-30 02:00:00,29.1,23.7,30.25,NW,311,0.0,0.0,80,0.00,,---,0.00,VWS V14.01,2013-03-30 06:00:00,
2013-03-30 02:01:00,29.1,24.0,30.25,NW,311,0.0,0.0,81,0.00,,---,0.00,VWS V14.01,2013-03-30 06:01:00,
2013-03-30 02:06:00,29.1,24.0,30.25,NW,311,0.0,0.0,81,0.00,,---,0.00,VWS V14.01,2013-03-30 06:06:00,
2013-03-30 02:11:00,29.0,24.2,30.25,NW,311,0.0,0.0,82,0.00,,---,0.00,VWS V14.01,2013-03-30 06:11:00,
2013-03-30 02:16:00,28.9,23.8,30.25,NW,311,0.0,0.0,81,0.00,,---,0.00,VWS V14.01,2013-03-30 06:16:00,
2013-03-30 02:21:00,28.8,23.1,30.25,NW,311,0.0,0.0,79,0.00,,---,0.00,VWS V14.01,2013-03-30 06:21:00,
2013-03-30 02:26:00,28.7,23.0,30.25,NW,311,0.0,0.0,79,0.00,,---,0.00,VWS V14.01,2013-03-30 06:26:00,
2013-03-30 02:30:00,28.7,23.0,30.25,NW,311,0.0,0.0,79,0.00,,---,0.00,VWS V14.01,2013-03-30 06:30:00,
2013-03-30 02:31:00,28.6,22.9,30.25,NW,311,0.0,0.0,79,0.00,,---,0.00,VWS V14.01,2013-03-30 06:31:00,
2013-03-30 02:36:00,28.6,22.9,30.25,NW,311,0.0,0.0,79,0.00,,---,0.00,VWS V14.01,2013-03-30 06:36:00,
2013-03-30 02:41:00,28.5,22.5,30.25,NW,311,0.0,0.0,78,0.00,,---,0.00,VWS V14.01,2013-03-30 06:41:00,
2013-03-30 02:46:00,28.5,22.8,30.25,NW,311,0.0,0.0,79,0.00,,---,0.00,VWS V14.01,2013-03-30 06:46:00,
2013-03-30 02:51:00,28.4,23.0,30.25,NW,311,0.0,0.0,80,0.00,,---,0.00,VWS V14.01,2013-03-30 06:51:00,
2013-03-30 02:56:00,28.4,22.7,30.25,NW,311,0.0,0.0,79,0.00,,---,0.00,VWS V14.01,2013-03-30 06:56:00,
2013-03-30 03:00:00,28.4,22.7,30.25,NW,311,0.0,0.0,79,0.00,,---,0.00,VWS V14.01,2013-03-30 07:00:00,
2013-03-30 03:01:00,28.4,22.7,30.25,NW,311,0.0,0.0,79,0.00,,---,0.00,VWS V14.01,2013-03-30 07:01:00,
2013-03-30 03:06:00,28.4,22.7,30.25,NW,311,0.0,0.0,79,0.00,,---,0.00,VWS V14.01,2013-03-30 07:06:00,
2013-03-30 03:11:00,28.3,22.6,30.25,NW,311,0.0,0.0,79,0.00,,---,0.00,VWS V14.01,2013-03-30 07:11:00,
2013-03-30 03:16:00,28.3,22.9,30.25,NW,311,0.0,0.0,80,0.00,,---,0.00,VWS V14.01,2013-03-30 07:16:00,
2013-03-30 03:21:00,28.3,22.6,30.25,NW,311,0.0,0.0,79,0.00,,---,0.00,VWS V14.01,2013-03-30 07:21:00,
2013-03-30 03:26:00,28.2,22.8,30.25,NW,311,0.0,0.0,80,0.00,,---,0.00,VWS V14.01,2013-03-30 07:26:00,
2013-03-30 03:30:00,28.2,22.8,30.25,NW,311,0.0,0.0,80,0.00,,---,0.00,VWS V14.01,2013-03-30 07:30:00,
2013-03-30 03:31:00,28.2,23.1,30.25,NW,311,0.0,0.0,81,0.00,,---,0.00,VWS V14.01,2013-03-30 07:31:00,
2013-03-30 03:36:00,28.1,23.0,30.25,NW,311,0.0,0.0,81,0.00,,---,0.00,VWS V14.01,2013-03-30 07:36:00,
2013-03-30 03:41:00,28.1,23.3,30.25,NW,311,0.0,0.0,82,0.00,,---,0.00,VWS V14.01,2013-03-30 07:41:00,
2013-03-30 03:46:00,28.0,23.2,30.25,NW,311,0.0,0.0,82,0.00,,---,0.00,VWS V14.01,2013-03-30 07:46:00,
2013-03-30 03:52:00,28.0,23.2,30.25,NW,311,0.0,0.0,82,0.00,,---,0.00,VWS V14.01,2013-03-30 07:52:00,
2013-03-30 03:57:00,27.9,23.4,30.25,NW,311,0.0,0.0,83,0.00,,---,0.00,VWS V14.01,2013-03-30 07:57:00,
2013-03-30 04:00:00,28.0,23.5,30.25,NW,311,0.0,0.0,83,0.00,,---,0.00,VWS V14.01,2013-03-30 08:00:00,
2013-03-30 04:02:00,27.9,23.1,30.25,NW,311,0.0,0.0,82,0.00,,---,0.00,VWS V14.01,2013-03-30 08:02:00,
2013-03-30 04:07:00,27.9,23.1,30.25,NW,311,0.0,0.0,82,0.00,,---,0.00,VWS V14.01,2013-03-30 08:07:00,
2013-03-30 04:12:00,27.8,23.3,30.25,NW,311,0.0,0.0,83,0.00,,---,0.00,VWS V14.01,2013-03-30 08:12:00,
2013-03-30 04:17:00,27.8,23.3,30.25,NW,311,0.0,0.0,83,0.00,,---,0.00,VWS V14.01,2013-03-30 08:17:00,
2013-03-30 04:22:00,27.8,23.3,30.25,NW,311,0.0,0.0,83,0.00,,---,0.00,VWS V14.01,2013-03-30 08:22:00,
2013-03-30 04:27:00,27.8,23.3,30.25,NW,311,0.0,0.0,83,0.00,,---,0.00,VWS V14.01,2013-03-30 08:27:00,
2013-03-30 04:30:00,27.7,23.2,30.25,NW,311,0.0,0.0,83,0.00,,---,0.00,VWS V14.01,2013-03-30 08:30:00,
2013-03-30 04:32:00,27.6,23.1,30.25,NW,311,0.0,0.0,83,0.00,,---,0.00,VWS V14.01,2013-03-30 08:32:00,
2013-03-30 04:37:00,27.6,23.1,30.25,NW,311,0.0,0.0,83,0.00,,---,0.00,VWS V14.01,2013-03-30 08:37:00,
2013-03-30 04:42:00,27.5,23.3,30.25,NW,311,0.0,0.0,84,0.00,,---,0.00,VWS V14.01,2013-03-30 08:42:00,
2013-03-30 04:47:00,27.5,23.3,30.25,NW,311,0.0,0.0,84,0.00,,---,0.00,VWS V14.01,2013-03-30 08:47:00,
2013-03-30 04:52:00,27.4,23.2,30.25,NW,311,0.0,0.0,84,0.00,,---,0.00,VWS V14.01,2013-03-30 08:52:00,
2013-03-30 04:57:00,27.4,23.2,30.25,NW,311,0.0,0.0,84,0.00,,---,0.00,VWS V14.01,2013-03-30 08:57:00,
2013-03-30 05:00:00,27.4,23.2,30.25,NW,311,0.0,0.0,84,0.00,,---,0.00,VWS V14.01,2013-03-30 09:00:00,
2013-03-30 05:02:00,27.4,23.2,30.25,NW,311,0.0,0.0,84,0.00,,---,0.00,VWS V14.01,2013-03-30 09:02:00,
2013-03-30 05:07:00,27.4,23.2,30.25,NW,311,0.0,0.0,84,0.00,,---,0.00,VWS V14.01,2013-03-30 09:07:00,
2013-03-30 05:12:00,27.3,23.4,30.25,NW,311,0.0,0.0,85,0.00,,---,0.00,VWS V14.01,2013-03-30 09:12:00,
2013-03-30 05:17:00,27.2,23.0,30.25,NW,311,0.0,0.0,84,0.00,,---,0.00,VWS V14.01,2013-03-30 09:17:00,
2013-03-30 05:22:00,27.1,22.9,30.25,NW,311,0.0,0.0,84,0.00,,---,0.00,VWS V14.01,2013-03-30 09:22:00,
2013-03-30 05:27:00,26.9,22.7,30.25,NW,311,0.0,0.0,84,0.00,,---,0.00,VWS V14.01,2013-03-30 09:27:00,
2013-03-30 05:30:00,26.9,22.7,30.25,NW,311,0.0,0.0,84,0.00,,---,0.00,VWS V14.01,2013-03-30 09:30:00,
2013-03-30 05:32:00,26.9,22.7,30.25,NW,311,0.0,0.0,84,0.00,,---,0.00,VWS V14.01,2013-03-30 09:32:00,
2013-03-30 05:34:00,26.8,22.6,30.25,NW,311,0.0,0.0,84,0.00,,---,0.00,VWS V14.01,2013-03-30 09:34:00,
2013-03-30 05:39:00,26.8,22.9,30.25,NW,311,0.0,0.0,85,0.00,,---,0.00,VWS V14.01,2013-03-30 09:39:00,
2013-03-30 05:44:00,26.8,22.9,30.25,NW,311,0.0,0.0,85,0.00,,---,0.00,VWS V14.01,2013-03-30 09:44:00,
2013-03-30 05:49:00,26.8,22.9,30.25,NW,311,0.0,0.0,85,0.00,,---,0.00,VWS V14.01,2013-03-30 09:49:00,
2013-03-30 05:54:00,26.8,22.9,30.25,NW,311,0.0,0.0,85,0.00,,---,0.00,VWS V14.01,2013-03-30 09:54:00,
2013-03-30 05:59:00,26.8,22.9,30.25,NW,311,0.0,0.0,85,0.00,,---,0.00,VWS V14.01,2013-03-30 09:59:00,
2013-03-30 06:00:00,26.8,22.9,30.25,NW,311,0.0,0.0,85,0.00,,---,0.00,VWS V14.01,2013-03-30 10:00:00,
2013-03-30 06:04:00,26.7,23.1,30.25,NW,311,0.0,0.0,86,0.00,,---,0.00,VWS V14.01,2013-03-30 10:04:00,
2013-03-30 06:09:00,26.7,23.1,30.25,NW,311,0.0,0.0,86,0.00,,---,0.00,VWS V14.01,2013-03-30 10:09:00,
2013-03-30 06:14:00,26.7,23.1,30.25,NW,311,0.0,0.0,86,0.00,,---,0.00,VWS V14.01,2013-03-30 10:14:00,
2013-03-30 06:19:00,26.5,22.9,30.25,NW,311,0.0,0.0,86,0.00,,---,0.00,VWS V14.01,2013-03-30 10:19:00,
2013-03-30 06:24:00,26.4,22.8,30.25,NW,311,0.0,0.0,86,0.00,,---,0.00,VWS V14.01,2013-03-30 10:24:00,
2013-03-30 06:29:00,26.4,23.1,30.25,NW,311,0.0,0.0,87,0.00,,---,0.00,VWS V14.01,2013-03-30 10:29:00,
2013-03-30 06:30:00,26.3,23.0,30.25,NW,311,0.0,0.0,87,0.00,,---,0.00,VWS V14.01,2013-03-30 10:30:00,
2013-03-30 06:34:00,26.4,23.1,30.25,NW,311,0.0,0.0,87,0.00,,---,0.00,VWS V14.01,2013-03-30 10:34:00,
2013-03-30 06:39:00,26.3,23.0,30.25,NW,311,0.0,0.0,87,0.00,,---,0.00,VWS V14.01,2013-03-30 10:39:00,
2013-03-30 06:44:00,26.3,23.0,30.25,NW,311,0.0,0.0,87,0.00,,---,0.00,VWS V14.01,2013-03-30 10:44:00,
2013-03-30 06:49:00,26.3,23.0,30.25,NW,311,0.0,0.0,87,0.00,,---,0.00,VWS V14.01,2013-03-30 10:49:00,
2013-03-30 06:54:00,26.2,22.9,30.25,NW,311,0.0,0.0,87,0.00,,---,0.00,VWS V14.01,2013-03-30 10:54:00,
2013-03-30 06:59:00,26.2,22.9,30.25,NW,311,0.0,0.0,87,0.00,,---,0.00,VWS V14.01,2013-03-30 10:59:00,
2013-03-30 07:00:00,26.2,22.9,30.25,NW,311,0.0,0.0,87,0.00,,---,0.00,VWS V14.01,2013-03-30 11:00:00,
2013-03-30 07:04:00,26.1,22.8,30.25,NW,311,0.0,0.0,87,0.00,,---,0.00,VWS V14.01,2013-03-30 11:04:00,
2013-03-30 07:09:00,26.1,22.8,30.25,NW,311,0.0,0.0,87,0.00,,---,0.00,VWS V14.01,2013-03-30 11:09:00,
2013-03-30 07:14:00,26.1,22.8,30.25,NW,311,0.0,0.0,87,0.00,,---,0.00,VWS V14.01,2013-03-30 11:14:00,
2013-03-30 07:19:00,26.1,22.8,30.26,NW,311,0.0,0.0,87,0.00,,---,0.00,VWS V14.01,2013-03-30 11:19:00,
2013-03-30 07:24:00,26.0,22.7,30.26,NW,311,0.0,0.0,87,0.00,,---,0.00,VWS V14.01,2013-03-30 11:24:00,
2013-03-30 07:29:00,25.9,22.6,30.26,NW,311,0.0,0.0,87,0.00,,---,0.00,VWS V14.01,2013-03-30 11:29:00,
2013-03-30 07:30:00,26.0,22.7,30.26,NW,311,0.0,0.0,87,0.00,,---,0.00,VWS V14.01,2013-03-30 11:30:00,
2013-03-30 07:34:00,25.9,22.8,30.26,NW,311,0.0,0.0,88,0.00,,---,0.00,VWS V14.01,2013-03-30 11:34:00,
2013-03-30 07:39:00,26.0,22.9,30.26,NW,311,0.0,0.0,88,0.00,,---,0.00,VWS V14.01,2013-03-30 11:39:00,
2013-03-30 07:45:00,26.0,22.9,30.26,NW,311,0.0,0.0,88,0.00,,---,0.00,VWS V14.01,2013-03-30 11:45:00,
2013-03-30 07:50:00,26.0,22.9,30.26,NW,311,0.0,0.0,88,0.00,,---,0.00,VWS V14.01,2013-03-30 11:50:00,
2013-03-30 07:55:00,26.0,22.9,30.26,NW,311,0.0,0.0,88,0.00,,---,0.00,VWS V14.01,2013-03-30 11:55:00,
2013-03-30 08:00:00,26.1,23.3,30.26,NW,311,0.0,0.0,89,0.00,,---,0.00,VWS V14.01,2013-03-30 12:00:00,
2013-03-30 08:05:00,26.3,23.5,30.27,NW,311,0.0,0.0,89,0.00,,---,0.00,VWS V14.01,2013-03-30 12:05:00,
2013-03-30 08:10:00,26.4,23.6,30.27,NW,311,0.0,0.0,89,0.00,,---,0.00,VWS V14.01,2013-03-30 12:10:00,
2013-03-30 08:15:00,26.5,23.7,30.27,NW,311,0.0,0.0,89,0.00,,---,0.00,VWS V14.01,2013-03-30 12:15:00,
2013-03-30 08:20:00,26.5,23.7,30.27,NW,311,0.0,0.0,89,0.00,,---,0.00,VWS V14.01,2013-03-30 12:20:00,
2013-03-30 08:25:00,26.7,23.9,30.27,NW,311,0.0,0.0,89,0.00,,---,0.00,VWS V14.01,2013-03-30 12:25:00,
2013-03-30 08:30:00,27.0,24.5,30.27,NW,311,0.0,0.0,90,0.00,,---,0.00,VWS V14.01,2013-03-30 12:30:00,
2013-03-30 08:35:00,27.2,24.7,30.27,NW,311,0.0,0.0,90,0.00,,---,0.00,VWS V14.01,2013-03-30 12:35:00,
2013-03-30 08:40:00,27.5,25.0,30.28,NW,311,0.0,0.0,90,0.00,,---,0.00,VWS V14.01,2013-03-30 12:40:00,
2013-03-30 08:45:00,27.8,25.2,30.27,NW,311,0.0,0.0,90,0.00,,---,0.00,VWS V14.01,2013-03-30 12:45:00,
2013-03-30 08:50:00,28.1,25.5,30.28,NW,311,0.0,0.0,90,0.00,,---,0.00,VWS V14.01,2013-03-30 12:50:00,
2013-03-30 08:55:00,28.5,26.2,30.28,NW,311,0.0,0.0,91,0.00,,---,0.00,VWS V14.01,2013-03-30 12:55:00,
2013-03-30 09:00:00,29.0,26.7,30.27,NW,311,0.0,0.0,91,0.00,,---,0.00,VWS V14.01,2013-03-30 13:00:00,
2013-03-30 09:05:00,29.4,27.1,30.27,NW,311,0.0,1.0,91,0.00,,---,0.00,VWS V14.01,2013-03-30 13:05:00,
2013-03-30 09:10:00,30.1,27.8,30.27,NW,313,0.0,1.0,91,0.00,,---,0.00,VWS V14.01,2013-03-30 13:10:00,
2013-03-30 09:15:00,31.1,28.8,30.27,WSW,242,1.0,3.0,91,0.00,,---,0.00,VWS V14.01,2013-03-30 13:15:00,
2013-03-30 09:20:00,32.1,29.2,30.27,WSW,240,0.0,3.0,89,0.00,,---,0.00,VWS V14.01,2013-03-30 13:20:00,
2013-03-30 09:25:00,33.4,29.7,30.27,SSE,163,4.0,4.0,86,0.00,,---,0.00,VWS V14.01,2013-03-30 13:25:00,
2013-03-30 09:30:00,35.3,29.1,30.27,South,170,2.0,3.0,78,0.00,,---,0.00,VWS V14.01,2013-03-30 13:30:00,
2013-03-30 09:35:00,37.1,27.9,30.27,South,175,0.0,5.0,69,0.00,,---,0.00,VWS V14.01,2013-03-30 13:35:00,
2013-03-30 09:40:00,38.2,28.6,30.27,South,175,1.0,5.0,68,0.00,,---,0.00,VWS V14.01,2013-03-30 13:40:00,
2013-03-30 09:45:00,39.3,28.2,30.27,South,180,3.0,5.0,64,0.00,,---,0.00,VWS V14.01,2013-03-30 13:45:00,
2013-03-30 09:50:00,40.3,27.5,30.26,South,184,0.0,5.0,60,0.00,,---,0.00,VWS V14.01,2013-03-30 13:50:00,
2013-03-30 09:55:00,41.2,27.6,30.26,SE,142,3.0,5.0,58,0.00,,---,0.00,VWS V14.01,2013-03-30 13:55:00,
2013-03-30 10:00:00,41.9,26.5,30.26,South,191,2.0,6.0,54,0.00,,---,0.00,VWS V14.01,2013-03-30 14:00:00,
2013-03-30 10:05:00,42.4,26.5,30.26,South,180,1.0,6.0,53,0.00,,---,0.00,VWS V14.01,2013-03-30 14:05:00,
2013-03-30 10:10:00,42.9,26.5,30.25,SSW,194,1.0,6.0,52,0.00,,---,0.00,VWS V14.01,2013-03-30 14:10:00,
2013-03-30 10:15:00,43.3,26.4,30.25,SSE,157,2.0,6.0,51,0.00,,---,0.00,VWS V14.01,2013-03-30 14:15:00,
2013-03-30 10:20:00,43.7,26.3,30.25,South,170,0.0,6.0,50,0.00,,---,0.00,VWS V14.01,2013-03-30 14:20:00,
2013-03-30 10:25:00,44.1,27.1,30.25,ESE,104,1.0,6.0,51,0.00,,---,0.00,VWS V14.01,2013-03-30 14:25:00,
2013-03-30 10:30:00,44.5,26.5,30.25,ESE,111,3.0,7.0,49,0.00,,---,0.00,VWS V14.01,2013-03-30 14:30:00,
2013-03-30 10:35:00,44.8,26.8,30.25,South,180,5.0,7.0,49,0.00,,---,0.00,VWS V14.01,2013-03-30 14:35:00,
2013-03-30 10:40:00,45.2,27.7,30.25,SSW,201,3.0,10.0,50,0.00,,---,0.00,VWS V14.01,2013-03-30 14:40:00,
2013-03-30 10:45:00,45.5,26.5,30.25,SSW,198,4.0,10.0,47,0.00,,---,0.00,VWS V14.01,2013-03-30 14:45:00,
2013-03-30 10:51:00,46.0,26.9,30.25,SW,216,1.0,10.0,47,0.00,,---,0.00,VWS V14.01,2013-03-30 14:51:00,
2013-03-30 10:56:00,46.4,26.2,30.25,SW,234,2.0,10.0,45,0.00,,---,0.00,VWS V14.01,2013-03-30 14:56:00,
2013-03-30 11:00:00,46.4,26.8,30.25,SW,218,1.0,10.0,46,0.00,,---,0.00,VWS V14.01,2013-03-30 15:00:00,
2013-03-30 11:01:00,46.4,26.8,30.24,South,186,0.0,7.0,46,0.00,,---,0.00,VWS V14.01,2013-03-30 15:01:00,
2013-03-30 11:06:00,46.7,26.5,30.24,SSE,148,0.0,7.0,45,0.00,,---,0.00,VWS V14.01,2013-03-30 15:06:00,
2013-03-30 11:11:00,47.1,26.9,30.24,South,180,6.0,7.0,45,0.00,,---,0.00,VWS V14.01,2013-03-30 15:11:00,
2013-03-30 11:16:00,47.2,26.4,30.24,SSW,194,6.0,8.0,44,0.00,,---,0.00,VWS V14.01,2013-03-30 15:16:00,
2013-03-30 11:21:00,47.4,26.6,30.24,SW,227,2.0,8.0,44,0.00,,---,0.00,VWS V14.01,2013-03-30 15:21:00,
2013-03-30 11:27:00,47.6,26.2,30.24,SSE,159,2.0,8.0,43,0.00,,---,0.00,VWS V14.01,2013-03-30 15:27:00,
2013-03-30 11:30:00,47.7,26.3,30.24,SE,132,2.0,8.0,43,0.00,,---,0.00,VWS V14.01,2013-03-30 15:30:00,
2013-03-30 11:32:00,48.1,26.1,30.23,SW,226,5.0,5.0,42,0.00,,---,0.00,VWS V14.01,2013-03-30 15:32:00,
2013-03-30 11:37:00,48.2,25.6,30.23,South,180,4.0,6.0,41,0.00,,---,0.00,VWS V14.01,2013-03-30 15:37:00,
2013-03-30 11:42:00,48.3,26.9,30.23,SE,125,4.0,6.0,43,0.00,,---,0.00,VWS V14.01,2013-03-30 15:42:00,
2013-03-30 11:47:00,49.0,26.9,30.23,SSW,194,1.0,6.0,42,0.00,,---,0.00,VWS V14.01,2013-03-30 15:47:00,
2013-03-30 11:52:00,49.4,25.5,30.23,SSW,207,1.0,8.0,39,0.00,,---,0.00,VWS V14.01,2013-03-30 15:52:00,
2013-03-30 11:57:00,49.6,24.4,30.23,North,354,1.0,8.0,37,0.00,,---,0.00,VWS V14.01,2013-03-30 15:57:00,
2013-03-30 12:00:00,49.6,24.4,30.23,NNE,18,1.0,8.0,37,0.00,,---,0.00,VWS V14.01,2013-03-30 16:00:00,
2013-03-30 12:02:00,49.9,24.0,30.23,SSW,197,5.0,5.0,36,0.00,,---,0.00,VWS V14.01,2013-03-30 16:02:00,
2013-03-30 12:07:00,50.3,25.0,30.22,ESE,113,0.0,7.0,37,0.00,,---,0.00,VWS V14.01,2013-03-30 16:07:00,
2013-03-30 12:12:00,50.5,23.9,30.22,South,180,2.0,7.0,35,0.00,,---,0.00,VWS V14.01,2013-03-30 16:12:00,
2013-03-30 12:17:00,50.7,26.0,30.22,SW,218,3.0,7.0,38,0.00,,---,0.00,VWS V14.01,2013-03-30 16:17:00,
2013-03-30 12:22:00,50.8,24.1,30.22,SW,220,0.0,7.0,35,0.00,,---,0.00,VWS V14.01,2013-03-30 16:22:00,
2013-03-30 12:27:00,50.9,24.9,30.21,SSW,203,0.0,7.0,36,0.00,,---,0.00,VWS V14.01,2013-03-30 16:27:00,
2013-03-30 12:30:00,50.9,24.9,30.21,SSW,203,0.0,7.0,36,0.00,,---,0.00,VWS V14.01,2013-03-30 16:30:00,
2013-03-30 12:32:00,51.0,24.3,30.22,WNW,299,2.0,5.0,35,0.00,,---,0.00,VWS V14.01,2013-03-30 16:32:00,
2013-03-30 12:37:00,51.1,25.1,30.22,South,180,4.0,5.0,36,0.00,,---,0.00,VWS V14.01,2013-03-30 16:37:00,
2013-03-30 12:42:00,51.5,26.8,30.21,SW,217,1.0,7.0,38,0.00,,---,0.00,VWS V14.01,2013-03-30 16:42:00,
2013-03-30 12:47:00,52.0,25.9,30.21,SSW,203,1.0,7.0,36,0.00,,---,0.00,VWS V14.01,2013-03-30 16:47:00,
2013-03-30 12:52:00,51.9,25.1,30.21,ESE,111,1.0,7.0,35,0.00,,---,0.00,VWS V14.01,2013-03-30 16:52:00,
2013-03-30 12:57:00,51.9,25.8,30.21,South,180,5.0,6.0,36,0.00,,---,0.00,VWS V14.01,2013-03-30 16:57:00,
2013-03-30 13:00:00,51.9,25.8,30.21,SSW,207,6.0,9.0,36,0.00,,---,0.00,VWS V14.01,2013-03-30 17:00:00,
2013-03-30 13:02:00,52.1,26.6,30.21,ESE,121,5.0,10.0,37,0.00,,---,0.00,VWS V14.01,2013-03-30 17:02:00,
2013-03-30 13:07:00,52.5,24.2,30.20,SSW,208,0.0,10.0,33,0.00,,---,0.00,VWS V14.01,2013-03-30 17:07:00,
2013-03-30 13:12:00,52.4,24.2,30.20,South,180,5.0,10.0,33,0.00,,---,0.00,VWS V14.01,2013-03-30 17:12:00,
2013-03-30 13:17:00,51.5,24.1,30.20,SSW,204,4.0,10.0,34,0.00,,---,0.00,VWS V14.01,2013-03-30 17:17:00,
2013-03-30 13:22:00,52.2,24.7,30.20,SSW,201,0.0,10.0,34,0.00,,---,0.00,VWS V14.01,2013-03-30 17:22:00,
2013-03-30 13:27:00,53.1,26.9,30.20,ENE,61,0.0,0.0,36,0.00,,---,0.00,VWS V14.01,2013-03-30 17:27:00,
2013-03-30 13:30:00,53.0,26.8,30.20,ENE,61,0.0,10.0,36,0.00,,---,0.00,VWS V14.01,2013-03-30 17:30:00,
2013-03-30 13:32:00,53.6,25.2,30.19,SSW,197,2.0,4.0,33,0.00,,---,0.00,VWS V14.01,2013-03-30 17:32:00,
2013-03-30 13:37:00,53.7,26.0,30.19,WSW,241,4.0,7.0,34,0.00,,---,0.00,VWS V14.01,2013-03-30 17:37:00,
2013-03-30 13:43:00,53.2,24.1,30.19,SSW,201,3.0,7.0,32,0.00,,---,0.00,VWS V14.01,2013-03-30 17:43:00,
2013-03-30 13:48:00,53.0,26.1,30.18,ENE,78,2.0,7.0,35,0.00,,---,0.00,VWS V14.01,2013-03-30 17:48:00,
2013-03-30 13:53:00,53.6,25.9,30.18,South,180,7.0,7.0,34,0.00,,---,0.00,VWS V14.01,2013-03-30 17:53:00,
2013-03-30 13:58:00,53.6,25.9,30.18,SSW,203,1.0,2.0,34,0.00,,---,0.00,VWS V14.01,2013-03-30 17:58:00,
2013-03-30 14:00:00,53.6,25.9,30.18,SSW,201,2.0,8.0,34,0.00,,---,0.00,VWS V14.01,2013-03-30 18:00:00,
2013-03-30 14:03:00,54.2,27.9,30.18,SW,221,0.0,3.0,36,0.00,,---,0.00,VWS V14.01,2013-03-30 18:03:00,
2013-03-30 14:08:00,54.2,25.7,30.18,SSW,199,5.0,8.0,33,0.00,,---,0.00,VWS V14.01,2013-03-30 18:08:00,
2013-03-30 14:13:00,54.0,24.8,30.18,SE,124,6.0,8.0,32,0.00,,---,0.00,VWS V14.01,2013-03-30 18:13:00,
2013-03-30 14:18:00,54.5,27.4,30.18,SW,217,0.0,8.0,35,0.00,,---,0.00,VWS V14.01,2013-03-30 18:18:00,
2013-03-30 14:23:00,55.2,26.6,30.18,SE,146,1.0,8.0,33,0.00,,---,0.00,VWS V14.01,2013-03-30 18:23:00,
2013-03-30 14:28:00,55.0,24.2,30.17,South,175,4.0,6.0,30,0.00,,---,0.00,VWS V14.01,2013-03-30 18:28:00,
2013-03-30 14:30:00,55.1,24.2,30.17,SSE,166,3.0,8.0,30,0.00,,---,0.00,VWS V14.01,2013-03-30 18:30:00,
2013-03-30 14:33:00,54.4,25.2,30.17,South,185,0.0,9.0,32,0.00,,---,0.00,VWS V14.01,2013-03-30 18:33:00,
2013-03-30 14:38:00,54.5,24.5,30.17,SSW,205,2.0,9.0,31,0.00,,---,0.00,VWS V14.01,2013-03-30 18:38:00,
2013-03-30 14:43:00,54.6,24.6,30.16,West,261,0.0,9.0,31,0.00,,---,0.00,VWS V14.01,2013-03-30 18:43:00,
2013-03-30 14:48:00,54.8,24.8,30.17,SSW,199,7.0,10.0,31,0.00,,---,0.00,VWS V14.01,2013-03-30 18:48:00,
2013-03-30 14:53:00,54.2,24.2,30.16,SSE,158,5.0,10.0,31,0.00,,---,0.00,VWS V14.01,2013-03-30 18:53:00,
2013-03-30 14:58:00,54.6,24.6,30.16,South,185,3.0,9.0,31,0.00,,---,0.00,VWS V14.01,2013-03-30 18:58:00,
2013-03-30 15:00:00,54.7,25.4,30.16,SSW,197,2.0,10.0,32,0.00,,---,0.00,VWS V14.01,2013-03-30 19:00:00,
2013-03-30 15:03:00,54.6,25.4,30.16,SSW,194,1.0,9.0,32,0.00,,---,0.00,VWS V14.01,2013-03-30 19:03:00,
2013-03-30 15:08:00,54.5,25.3,30.15,SSE,164,4.0,9.0,32,0.00,,---,0.00,VWS V14.01,2013-03-30 19:08:00,
2013-03-30 15:13:00,55.0,25.7,30.15,SSW,207,0.0,10.0,32,0.00,,---,0.00,VWS V14.01,2013-03-30 19:13:00,
2013-03-30 15:18:00,55.7,24.8,30.16,SSW,203,3.0,10.0,30,0.00,,---,0.00,VWS V14.01,2013-03-30 19:18:00,
2013-03-30 15:23:00,55.1,25.8,30.15,SE,126,6.0,10.0,32,0.00,,---,0.00,VWS V14.01,2013-03-30 19:23:00,
2013-03-30 15:28:00,55.2,26.6,30.15,SE,128,3.0,4.0,33,0.00,,---,0.00,VWS V14.01,2013-03-30 19:28:00,
2013-03-30 15:30:00,55.1,25.8,30.15,ESE,102,3.0,10.0,32,0.00,,---,0.00,VWS V14.01,2013-03-30 19:30:00,
2013-03-30 15:33:00,55.6,26.2,30.15,SSE,164,1.0,5.0,32,0.00,,---,0.00,VWS V14.01,2013-03-30 19:33:00,
2013-03-30 15:38:00,55.8,25.6,30.14,SSW,194,0.0,5.0,31,0.00,,---,0.00,VWS V14.01,2013-03-30 19:38:00,
2013-03-30 15:43:00,56.0,25.0,30.14,South,180,5.0,6.0,30,0.00,,---,0.00,VWS V14.01,2013-03-30 19:43:00,
2013-03-30 15:48:00,56.0,25.8,30.14,WNW,292,1.0,6.0,31,0.00,,---,0.00,VWS V14.01,2013-03-30 19:48:00,
2013-03-30 15:53:00,55.7,24.8,30.14,South,175,2.0,6.0,30,0.00,,---,0.00,VWS V14.01,2013-03-30 19:53:00,
2013-03-30 15:58:00,55.2,25.9,30.14,SSW,197,0.0,4.0,32,0.00,,---,0.00,VWS V14.01,2013-03-30 19:58:00,
2013-03-30 16:00:00,55.3,23.6,30.14,SSW,212,1.0,6.0,29,0.00,,---,0.00,VWS V14.01,2013-03-30 20:00:00,
2013-03-30 16:03:00,55.5,26.1,30.13,SW,227,0.0,4.0,32,0.00,,---,0.00,VWS V14.01,2013-03-30 20:03:00,
2013-03-30 16:08:00,55.9,26.5,30.13,South,180,10.0,10.0,32,0.00,,---,0.00,VWS V14.01,2013-03-30 20:08:00,
2013-03-30 16:13:00,55.8,25.6,30.13,SSW,192,0.0,10.0,31,0.00,,---,0.00,VWS V14.01,2013-03-30 20:13:00,
2013-03-30 16:18:00,55.9,24.9,30.13,SSW,208,5.0,10.0,30,0.00,,---,0.00,VWS V14.01,2013-03-30 20:18:00,
2013-03-30 16:23:00,55.0,25.7,30.12,NNW,328,6.0,10.0,32,0.00,,---,0.00,VWS V14.01,2013-03-30 20:23:00,
2013-03-30 16:28:00,54.7,25.4,30.13,SSW,213,3.0,7.0,32,0.00,,---,0.00,VWS V14.01,2013-03-30 20:28:00,
2013-03-30 16:30:00,54.7,26.2,30.13,SW,219,7.0,10.0,33,0.00,,---,0.00,VWS V14.01,2013-03-30 20:30:00,
2013-03-30 16:33:00,54.8,27.0,30.12,ESE,115,0.0,7.0,34,0.00,,---,0.00,VWS V14.01,2013-03-30 20:33:00,
2013-03-30 16:39:00,55.0,25.7,30.12,SW,221,7.0,8.0,32,0.00,,---,0.00,VWS V14.01,2013-03-30 20:39:00,
2013-03-30 16:44:00,55.0,26.5,30.12,SSE,157,0.0,8.0,33,0.00,,---,0.00,VWS V14.01,2013-03-30 20:44:00,
2013-03-30 16:49:00,54.9,26.4,30.12,SSW,210,0.0,8.0,33,0.00,,---,0.00,VWS V14.01,2013-03-30 20:49:00,
2013-03-30 16:54:00,54.8,27.0,30.11,South,184,2.0,8.0,34,0.00,,---,0.00,VWS V14.01,2013-03-30 20:54:00,
2013-03-30 16:59:00,54.8,26.3,30.11,SSW,199,0.0,3.0,33,0.00,,---,0.00,VWS V14.01,2013-03-30 20:59:00,
2013-03-30 17:00:00,54.8,25.5,30.11,SSW,205,3.0,9.0,32,0.00,,---,0.00,VWS V14.01,2013-03-30 21:00:00,
2013-03-30 17:04:00,54.8,27.0,30.11,South,191,5.0,7.0,34,0.00,,---,0.00,VWS V14.01,2013-03-30 21:04:00,
2013-03-30 17:09:00,54.3,25.1,30.11,SE,130,1.0,7.0,32,0.00,,---,0.00,VWS V14.01,2013-03-30 21:09:00,
2013-03-30 17:14:00,54.3,26.5,30.10,SSW,197,3.0,7.0,34,0.00,,---,0.00,VWS V14.01,2013-03-30 21:14:00,
2013-03-30 17:19:00,54.2,27.9,30.11,North,356,1.0,7.0,36,0.00,,---,0.00,VWS V14.01,2013-03-30 21:19:00,
2013-03-30 17:24:00,53.6,28.0,30.10,NNE,25,1.0,7.0,37,0.00,,---,0.00,VWS V14.01,2013-03-30 21:24:00,
2013-03-30 17:29:00,53.3,28.4,30.10,North,359,3.0,4.0,38,0.00,,---,0.00,VWS V14.01,2013-03-30 21:29:00,
2013-03-30 17:30:00,53.4,27.8,30.10,NNW,334,4.0,7.0,37,0.00,,---,0.00,VWS V14.01,2013-03-30 21:30:00,
2013-03-30 17:34:00,53.1,28.2,30.10,NNE,23,3.0,5.0,38,0.00,,---,0.00,VWS V14.01,2013-03-30 21:34:00,
2013-03-30 17:39:00,53.3,28.4,30.10,NE,50,1.0,5.0,38,0.00,,---,0.00,VWS V14.01,2013-03-30 21:39:00,
2013-03-30 17:44:00,53.2,28.3,30.10,NNE,32,0.0,5.0,38,0.00,,---,0.00,VWS V14.01,2013-03-30 21:44:00,
2013-03-30 17:49:00,53.2,28.9,30.10,NNW,328,6.0,7.0,39,0.00,,---,0.00,VWS V14.01,2013-03-30 21:49:00,
2013-03-30 17:54:00,52.6,27.7,30.10,NNW,328,0.0,7.0,38,0.00,,---,0.00,VWS V14.01,2013-03-30 21:54:00,
2013-03-30 17:59:00,52.4,28.2,30.10,NNW,329,4.0,6.0,39,0.00,,---,0.00,VWS V14.01,2013-03-30 21:59:00,
2013-03-30 18:00:00,52.5,27.6,30.10,NNW,328,0.0,7.0,38,0.00,,---,0.00,VWS V14.01,2013-03-30 22:00:00,
2013-03-30 18:04:00,52.2,28.0,30.10,NW,324,4.0,7.0,39,0.00,,---,0.00,VWS V14.01,2013-03-30 22:04:00,
2013-03-30 18:09:00,51.7,28.2,30.10,NW,322,4.0,7.0,40,0.00,,---,0.00,VWS V14.01,2013-03-30 22:09:00,
2013-03-30 18:14:00,51.6,27.5,30.10,North,11,2.0,7.0,39,0.00,,---,0.00,VWS V14.01,2013-03-30 22:14:00,
2013-03-30 18:19:00,51.5,28.0,30.10,NW,326,5.0,7.0,40,0.00,,---,0.00,VWS V14.01,2013-03-30 22:19:00,
2013-03-30 18:24:00,51.2,28.3,30.09,NW,325,2.0,7.0,41,0.00,,---,0.00,VWS V14.01,2013-03-30 22:24:00,
2013-03-30 18:29:00,50.9,28.6,30.09,NW,308,0.0,4.0,42,0.00,,---,0.00,VWS V14.01,2013-03-30 22:29:00,
2013-03-30 18:30:00,51.0,27.5,30.09,NW,308,4.0,7.0,40,0.00,,---,0.00,VWS V14.01,2013-03-30 22:30:00,
2013-03-30 18:34:00,50.7,29.0,30.10,NW,308,0.0,4.0,43,0.00,,---,0.00,VWS V14.01,2013-03-30 22:34:00,
2013-03-30 18:39:00,50.6,29.0,30.09,NW,308,0.0,4.0,43,0.00,,---,0.00,VWS V14.01,2013-03-30 22:39:00,
2013-03-30 18:44:00,50.5,28.3,30.09,NE,39,0.0,4.0,42,0.00,,---,0.00,VWS V14.01,2013-03-30 22:44:00,
2013-03-30 18:49:00,50.4,28.2,30.09,NE,39,0.0,4.0,42,0.00,,---,0.00,VWS V14.01,2013-03-30 22:49:00,
2013-03-30 18:54:00,50.2,29.7,30.09,NE,39,1.0,4.0,45,0.00,,---,0.00,VWS V14.01,2013-03-30 22:54:00,
2013-03-30 18:59:00,49.8,27.6,30.09,NNE,25,0.0,2.0,42,0.00,,---,0.00,VWS V14.01,2013-03-30 22:59:00,
2013-03-30 19:00:00,50.0,28.4,30.09,NNE,25,2.0,5.0,43,0.00,,---,0.00,VWS V14.01,2013-03-30 23:00:00,
2013-03-30 19:04:00,49.7,28.1,30.09,NNE,25,0.0,2.0,43,0.00,,---,0.00,VWS V14.01,2013-03-30 23:04:00,
2013-03-30 19:10:00,49.5,27.4,30.09,NNE,25,0.0,2.0,42,0.00,,---,0.00,VWS V14.01,2013-03-30 23:10:00,
2013-03-30 19:15:00,49.4,27.3,30.08,NNE,25,0.0,2.0,42,0.00,,---,0.00,VWS V14.01,2013-03-30 23:15:00,
2013-03-30 19:20:00,49.2,27.7,30.08,NNE,25,0.0,2.0,43,0.00,,---,0.00,VWS V14.01,2013-03-30 23:20:00,
2013-03-30 19:25:00,49.2,28.8,30.08,NNE,25,0.0,2.0,45,0.00,,---,0.00,VWS V14.01,2013-03-30 23:25:00,
2013-03-30 19:30:00,49.1,28.1,30.08,NNE,25,0.0,0.0,44,0.00,,---,0.00,VWS V14.01,2013-03-30 23:30:00,
2013-03-30 19:35:00,48.9,27.4,30.08,NNE,25,0.0,0.0,43,0.00,,---,0.00,VWS V14.01,2013-03-30 23:35:00,
2013-03-30 19:40:00,48.8,27.3,30.08,NNE,25,0.0,0.0,43,0.00,,---,0.00,VWS V14.01,2013-03-30 23:40:00,
2013-03-30 19:45:00,48.6,27.7,30.08,NNE,25,0.0,0.0,44,0.00,,---,0.00,VWS V14.01,2013-03-30 23:45:00,
2013-03-30 19:50:00,48.4,28.0,30.07,NNE,25,0.0,0.0,45,0.00,,---,0.00,VWS V14.01,2013-03-30 23:50:00,
2013-03-30 19:55:00,48.3,28.0,30.07,NNE,25,0.0,0.0,45,0.00,,---,0.00,VWS V14.01,2013-03-30 23:55:00,
2013-03-30 20:00:00,47.9,27.6,30.07,NNE,25,0.0,0.0,45,0.00,,---,0.00,VWS V14.01,2013-03-31 00:00:00,
2013-03-30 20:05:00,47.4,28.2,30.07,NNE,25,0.0,0.0,47,0.00,,---,0.00,VWS V14.01,2013-03-31 00:05:00,
2013-03-30 20:10:00,46.8,28.7,30.07,NNE,25,0.0,0.0,49,0.00,,---,0.00,VWS V14.01,2013-03-31 00:10:00,
2013-03-30 20:15:00,46.3,29.2,30.07,NNE,25,0.0,0.0,51,0.00,,---,0.00,VWS V14.01,2013-03-31 00:15:00,
2013-03-30 20:20:00,45.9,28.3,30.07,NNE,25,0.0,0.0,50,0.00,,---,0.00,VWS V14.01,2013-03-31 00:20:00,
2013-03-30 20:25:00,45.4,29.3,30.07,NNE,25,0.0,1.0,53,0.00,,---,0.00,VWS V14.01,2013-03-31 00:25:00,
2013-03-30 20:30:00,45.1,29.0,30.07,NNE,25,0.0,0.0,53,0.00,,---,0.00,VWS V14.01,2013-03-31 00:30:00,
2013-03-30 20:35:00,44.9,30.2,30.08,NNE,25,0.0,0.0,56,0.00,,---,0.00,VWS V14.01,2013-03-31 00:35:00,
2013-03-30 20:40:00,44.6,29.5,30.07,NNE,25,0.0,0.0,55,0.00,,---,0.00,VWS V14.01,2013-03-31 00:40:00,
2013-03-30 20:45:00,44.3,30.9,30.08,NNE,25,0.0,0.0,59,0.00,,---,0.00,VWS V14.01,2013-03-31 00:45:00,
2013-03-30 20:50:00,44.1,30.3,30.07,NNE,25,0.0,0.0,58,0.00,,---,0.00,VWS V14.01,2013-03-31 00:50:00,
2013-03-30 20:55:00,43.8,30.8,30.07,NNE,25,0.0,0.0,60,0.00,,---,0.00,VWS V14.01,2013-03-31 00:55:00,
2013-03-30 21:00:00,43.6,30.2,30.07,NNE,25,0.0,0.0,59,0.00,,---,0.00,VWS V14.01,2013-03-31 01:00:00,
2013-03-30 21:05:00,43.4,29.2,30.07,NNE,25,0.0,0.0,57,0.00,,---,0.00,VWS V14.01,2013-03-31 01:05:00,
2013-03-30 21:10:00,43.3,29.1,30.07,NNE,25,0.0,0.0,57,0.00,,---,0.00,VWS V14.01,2013-03-31 01:10:00,
2013-03-30 21:15:00,42.7,29.0,30.07,NNE,25,0.0,0.0,58,0.00,,---,0.00,VWS V14.01,2013-03-31 01:15:00,
2013-03-30 21:20:00,42.4,29.1,30.07,NNE,25,0.0,0.0,59,0.00,,---,0.00,VWS V14.01,2013-03-31 01:20:00,
2013-03-30 21:25:00,42.1,28.8,30.07,NNE,25,0.0,0.0,59,0.00,,---,0.00,VWS V14.01,2013-03-31 01:25:00,
2013-03-30 21:30:00,42.0,28.7,30.07,NNE,25,0.0,0.0,59,0.00,,---,0.00,VWS V14.01,2013-03-31 01:30:00,
2013-03-30 21:31:00,41.8,28.5,30.07,NNE,25,0.0,0.0,59,0.00,,---,0.00,VWS V14.01,2013-03-31 01:31:00,
2013-03-30 21:36:00,41.6,28.8,30.07,NNE,25,0.0,0.0,60,0.00,,---,0.00,VWS V14.01,2013-03-31 01:36:00,
2013-03-30 21:41:00,41.3,29.3,30.07,NNE,25,0.0,0.0,62,0.00,,---,0.00,VWS V14.01,2013-03-31 01:41:00,
2013-03-30 21:46:00,41.2,29.2,30.07,NNE,25,0.0,0.0,62,0.00,,---,0.00,VWS V14.01,2013-03-31 01:46:00,
2013-03-30 21:51:00,41.1,29.5,30.07,NNE,25,0.0,0.0,63,0.00,,---,0.00,VWS V14.01,2013-03-31 01:51:00,
2013-03-30 21:56:00,40.9,28.9,30.06,NNE,25,0.0,0.0,62,0.00,,---,0.00,VWS V14.01,2013-03-31 01:56:00,
2013-03-30 22:00:00,40.9,28.9,30.06,NNE,25,0.0,0.0,62,0.00,,---,0.00,VWS V14.01,2013-03-31 02:00:00,
2013-03-30 22:01:00,40.9,28.9,30.06,NNE,25,0.0,0.0,62,0.00,,---,0.00,VWS V14.01,2013-03-31 02:01:00,
2013-03-30 22:06:00,40.9,28.5,30.06,NNE,25,0.0,0.0,61,0.00,,---,0.00,VWS V14.01,2013-03-31 02:06:00,
2013-03-30 22:11:00,40.8,28.8,30.06,NNE,25,0.0,0.0,62,0.00,,---,0.00,VWS V14.01,2013-03-31 02:11:00,
2013-03-30 22:16:00,40.7,29.1,30.06,NNE,25,0.0,0.0,63,0.00,,---,0.00,VWS V14.01,2013-03-31 02:16:00,
2013-03-30 22:21:00,40.7,28.7,30.06,NNE,25,0.0,0.0,62,0.00,,---,0.00,VWS V14.01,2013-03-31 02:21:00,
2013-03-30 22:26:00,40.7,28.7,30.06,NNE,25,0.0,0.0,62,0.00,,---,0.00,VWS V14.01,2013-03-31 02:26:00,
2013-03-30 22:30:00,40.7,28.7,30.06,NNE,25,0.0,0.0,62,0.00,,---,0.00,VWS V14.01,2013-03-31 02:30:00,
2013-03-30 22:31:00,40.7,28.7,30.06,NNE,25,0.0,0.0,62,0.00,,---,0.00,VWS V14.01,2013-03-31 02:31:00,
2013-03-30 22:36:00,40.7,29.1,30.05,NNE,25,0.0,0.0,63,0.00,,---,0.00,VWS V14.01,2013-03-31 02:36:00,
2013-03-30 22:41:00,40.7,30.2,30.05,NNE,25,0.0,0.0,66,0.00,,---,0.00,VWS V14.01,2013-03-31 02:41:00,
2013-03-30 22:47:00,40.7,30.6,30.05,NNE,25,0.0,0.0,67,0.00,,---,0.00,VWS V14.01,2013-03-31 02:47:00,
2013-03-30 22:52:00,40.7,30.2,30.05,NNE,25,0.0,0.0,66,0.00,,---,0.00,VWS V14.01,2013-03-31 02:52:00,
2013-03-30 22:57:00,40.8,29.2,30.04,NNE,25,0.0,1.0,63,0.00,,---,0.00,VWS V14.01,2013-03-31 02:57:00,
2013-03-30 23:00:00,40.8,29.2,30.04,NNE,25,0.0,1.0,63,0.00,,---,0.00,VWS V14.01,2013-03-31 03:00:00,
2013-03-30 23:02:00,40.9,29.3,30.04,NNE,25,0.0,1.0,63,0.00,,---,0.00,VWS V14.01,2013-03-31 03:02:00,
2013-03-30 23:07:00,41.0,29.8,30.04,NNE,25,0.0,1.0,64,0.00,,---,0.00,VWS V14.01,2013-03-31 03:07:00,
2013-03-30 23:12:00,41.1,30.2,30.04,NNE,25,0.0,1.0,65,0.00,,---,0.00,VWS V14.01,2013-03-31 03:12:00,
2013-03-30 23:17:00,41.1,30.2,30.03,NNE,25,0.0,1.0,65,0.00,,---,0.00,VWS V14.01,2013-03-31 03:17:00,
2013-03-30 23:22:00,41.2,30.3,30.04,NNE,25,0.0,1.0,65,0.00,,---,0.00,VWS V14.01,2013-03-31 03:22:00,
2013-03-30 23:27:00,41.3,30.8,30.03,NNE,25,0.0,1.0,66,0.00,,---,0.00,VWS V14.01,2013-03-31 03:27:00,
2013-03-30 23:30:00,41.3,30.8,30.03,NNE,25,0.0,1.0,66,0.00,,---,0.00,VWS V14.01,2013-03-31 03:30:00,
2013-03-30 23:32:00,41.3,30.1,30.03,NNE,25,0.0,0.0,64,0.00,,---,0.00,VWS V14.01,2013-03-31 03:32:00,
2013-03-30 23:37:00,41.4,29.8,30.03,NNE,25,0.0,0.0,63,0.00,,---,0.00,VWS V14.01,2013-03-31 03:37:00,
2013-03-30 23:42:00,41.5,29.1,30.03,NNE,25,0.0,0.0,61,0.00,,---,0.00,VWS V14.01,2013-03-31 03:42:00,
2013-03-30 23:47:00,41.7,29.3,30.03,NNE,25,0.0,0.0,61,0.00,,---,0.00,VWS V14.01,2013-03-31 03:47:00,
2013-03-30 23:52:00,41.7,28.9,30.02,NNE,25,0.0,1.0,60,0.00,,---,0.00,VWS V14.01,2013-03-31 03:52:00,
2013-03-30 23:57:00,41.9,29.0,30.02,NNE,25,0.0,0.0,60,0.00,,---,0.00,VWS V14.01,2013-03-31 03:57:00,